星链-34550 (STARLINK-34550)

导读

STARLINK-34550是美国太空探索技术公司SpaceX星链星座的卫星,于2025年6月28日发射升空,归属美国,是星链低轨互联网星座组网计划的组成部分。星链系统旨在为全球用户提供高速卫星互联网接入服务,该卫星补充了星座规模,进一步完善星座的全球覆盖与服务能力。

基本信息
目录编号:
64683
目录名称:
STARLINK-34550
国际标识:
2025-139V
轨道中心:
EARTH
卫星名称:
星链-34550
卫星全名:
星链-34550 (STARLINK-34550)
卫星状态:
在轨 (已飞行350 天)
发射日期:
2025-06-28 UTC
国别 :
美国 (US)
星等 :
--
轨道信息
数据来源 国际轨道数据 AOE轨道数据
星历时间 2026-06-13T07:28:05+0800
22小时前
查看轨道信息
2026-06-08T23:00:00+0800
5天前
查看轨道信息
半长轴 6840.809km 6840.926km
偏心率 0.000126 0.0001646
轨道倾角 53.160° 53.160°
近地点辐角 100.269° 58.861°
升交点赤经 42.981° 63.333°
平近点角 259.845° 3.487°
近地点 461.81km 461.662km
远地点 463.534km 463.916km
周期 93.847分钟 93.850分钟
每日圈数 15.344108 15.343712
详细信息
固有亮度:
5
最大亮度:
2.5
卫星平台:
Starlink V1.0
覆盖范围:
全球
运营商:
太空探索技术公司
运营商所在国:
美国
制造商(研发单位):
太空探索技术公司
制造商所在国:
美国
使用方式:
暂无
卫星简介
Starlink 计划是 SpaceX 推出的全球卫星互联网项目,通过发射低轨道卫星,为全球尤其是偏远地区提供高速、低延迟的互联网服务。自 2019 年起,Starlink 已部署数千颗卫星,旨在缩小全球数字鸿沟,推动互联网普及。该项目还为军事、航空等行业提供通信支持,带来广泛经济效益。
2D轨道图
3D轨道图
轨道高度分析图
轨道倾角分析图
轨道综合分析图
查看轨道综合分析图